Other Public Products
Issued by NWS Charleston, SC

Current Version | Previous Version | Graphics & Text | Print | Product List | Glossary On
Versions: 1 2 3 4 5 6 7 8 9 10 11 12 13 14 15 16 17 18 19 20 21 22 23 24 25 26 27 28 29 30 31 32 33 34 35 36 37 38 39 40 41 42 43 44 45 46 47 48 49 50
000 FPUS82 KCHS 180312 OPUCHS TEST...KCHS/KSAV Gateway Observations...TEST National Weather Service Charleston SC 1000 PM EST FRI NOV 17 2017 NOTE: "fair" indicates few or no clouds below 12,000 feet with no significant weather and/or obstructions to visibility. SCZ050-WAZ558-NCZ071-TXZ119-213-PAZ071-DCZ001-FLZ074-172-MI076- NYZ176-178-MAZ016-IL014-TNZ027-NJZ106-GAZ044-MD014-180400- ...Gateway Observations for Charleston International... CITY SKY/WX TMP DP RH WIND PRES REMARKS Chas Airport CLEAR 45 44 97 NE3 30.16S Seattle MOCLDY 45 39 79 S14 30.25R Charlotte PTCLDY 47 33 58 S3 30.14S Dallas DFW PTCLDY 76 64 66 S16 29.71F Dallas Love PTCLDY 75 64 68 S15 29.73F Philladelphia PTCLDY 40 26 57 SW3 30.12S Wash National CLOUDY 42 32 67 SW3 30.13S Baltimore CLOUDY 35 28 75 CALM 30.11F Miami PTCLDY 73 59 61 NE7 30.03R Detroit LGT RAIN 44 34 67 S14 29.80F Newark PTCLDY 39 17 41 W9 30.10S WCI 33 Laguardia PTCLDY 42 18 37 W12 30.09R J F K PTCLDY 39 17 41 W7 30.10R WCI 34 Boston Logan CLEAR 36 13 38 W14 29.99S WCI 27 Ft. Lauderdale PTCLDY 72 58 61 NE3 30.02R Chicago O`Hare LGT RAIN 45 42 89 S12 29.59F FOG Chicago Midway DRIZZLE 45 43 93 S14G21 29.61F FOG Houston Bush MOCLDY 74 69 85 S13 29.91S Houston Hobby MOCLDY 71 70 96 S8 29.92R Nashville CLOUDY 61 33 35 S21G30 29.91S Atlanta PTCLDY 53 44 71 SE6 30.09S $$ GAZ044-118-TXZ119-213-NCZ071-DCZ001-MDZ014-506-PAZ021-071-NJZ106- NYZ176-178-MAZ106-OHZ011-021-055-MIZ076-KYZ091-ILZ014-INZ047- MNZ060-ONZ431-180400- ...Gateway Observations for Savannah International... CITY SKY/WX TMP DP RH WIND PRES REMARKS Savannah Arpt PTCLDY 54 50 86 NE5 30.14S Atlanta PTCLDY 53 44 71 SE6 30.09S Charlotte PTCLDY 47 33 58 S3 30.14S Dallas DFW PTCLDY 76 64 66 S16 29.71F Houston Bush MOCLDY 74 69 85 S13 29.91S Wash National CLOUDY 42 32 67 SW3 30.13S Wash Dulles CLOUDY 32 30 92 CALM 30.11S Baltimore CLOUDY 35 28 75 CALM 30.11F Philadelphia PTCLDY 40 26 57 SW3 30.12S Newark PTCLDY 39 17 41 W9 30.10S WCI 33 Laguardia PTCLDY 42 18 37 W12 30.09R J F K PTCLDY 39 17 41 W7 30.10R WCI 34 Boston CLEAR 36 13 38 W14 29.99S WCI 27 Pittsburg CLOUDY 34 28 79 SE3 29.95F Akron CLOUDY 38 28 67 S12 29.92F WCI 30 Cleveland PTCLDY 43 30 60 S14G20 29.91F Cincinnati CLOUDY 47 36 65 S12 29.85F Columbus MOCLDY 40 32 74 S6 29.90F WCI 35 Detroit LGT RAIN 44 34 67 S14 29.80F Chicago O`Hare LGT RAIN 45 42 89 S12 29.59F FOG Minneapolis CLOUDY 38 36 92 N6 29.66R WCI 33 Indianapolis CLOUDY 49 37 63 S13 29.76F Toronto Canada MOCLDY 36 28 75 SE8 29.93F WCI 29 $$

USA.gov is the U.S. government's official web portal to all federal, state and local government web resources and services.